#timestamp,LO_Frequency,Hit,StdDev 
1502859615.8,286047000.2,N,1.1
1502859635.7,286047002.8,N,1.2
1502859655.5,286046999.9,N,1.2
1502859675.3,286047002.7,N,1.2
1502859695.2,286047002.8,N,1.3
1502859715.0,286047004.4,Y,0.0
1502859715.9,286047004.4,P,2.0
1502859735.8,286047002.6,N,1.6
1502859755.6,286047002.3,N,1.4
1502859775.4,286047001.9,N,1.3
1502859795.3,286047000.1,N,1.4
1502859815.1,286046999.9,N,1.5
1502859835.9,286047002.4,N,1.4
1502859855.7,286047000.0,N,1.5
1502859875.5,286046999.9,N,1.5
1502859895.4,286047000.9,N,1.4
1502859915.2,286046998.5,N,1.6
1502859935.0,286046998.1,N,1.7
1502859935.9,286046998.1,N,1.8
1502859955.8,286047001.0,N,1.7
1502859975.6,286047001.2,N,1.7
1502859995.5,286046998.6,N,1.7
1502860015.3,286046998.7,N,1.7
1502860035.1,286046998.9,N,1.7
1502860055.9,286046999.0,N,1.7
1502860075.7,286046998.3,N,1.7
1502860095.6,286046999.4,N,1.7
1502860115.4,286046999.1,N,1.7
1502860135.2,286046999.2,N,1.6
1502860155.1,286046997.4,N,1.7
1502860156.0,286046997.4,N,1.7
1502860175.8,286046997.9,N,1.7
1502860195.7,286046995.0,N,1.9
1502860215.5,286046994.9,N,2.1
1502860235.3,286046997.5,N,2.1
1502860255.2,286046995.1,N,2.2
1502860275.0,286046995.6,N,2.1
1502860275.9,286046995.6,N,2.1
1502860295.7,286046996.1,N,2.0
1502860315.6,286046995.0,N,2.0
1502860335.4,286046995.2,N,2.0
1502860355.3,286046995.9,N,2.1
1502860375.1,286046993.7,Y,0.0
1502860395.8,286046995.0,P,1.5
1502860415.7,286046997.4,N,1.3
1502860435.5,286046996.5,N,1.1
1502860455.4,286046996.8,N,1.0
1502860475.2,286046997.5,N,1.0
1502860495.0,286046995.1,Y,0.0
1502860495.9,286046995.1,P,0.9
1502860515.8,286046998.4,N,1.3
1502860535.6,286046999.0,N,1.5
1502860555.4,286046996.9,N,1.4
1502860575.3,286046999.3,N,1.5
1502860595.1,286046999.4,N,1.5
1502860615.9,286046996.5,N,1.5
1502860635.7,286046997.0,N,1.4
1502860655.5,286046997.6,N,1.3
1502860675.4,286046994.9,Y,0.0
1502860695.2,286046999.1,P,0.7
1502860715.1,286046999.6,N,0.8
1502860716.0,286046999.6,N,0.8
1502860735.8,286046999.5,N,0.8
1502860755.6,286046999.2,N,0.7
1502860775.5,286046998.4,N,0.7
1502860795.3,286046999.0,N,0.6
1502860815.2,286046999.3,N,0.6
1502860835.9,286046996.5,Y,0.0
1502860855.7,286046999.1,P,0.0
1502860875.6,286046999.2,P,0.1
1502860895.4,286046999.3,P,0.1
1502860915.3,286046999.2,Y,0.0
1502860935.1,286046998.3,P,0.4
1502860936.0,286046998.3,P,0.4
1502860955.8,286046998.2,P,0.4
1502860975.7,286047000.7,N,0.9
1502860995.5,286046998.5,N,0.9
1502861015.3,286046998.8,N,0.8
1502861035.2,286046999.5,N,0.8
1502861055.0,286046998.3,N,0.8
1502861055.9,286046998.3,N,0.8
1502861075.8,286046999.0,N,0.7
1502861095.6,286046999.5,N,0.7
1502861115.4,286046999.1,N,0.7
1502861135.3,286046996.8,Y,0.0
1502861155.1,286046998.3,P,0.3
1502861175.9,286046999.0,P,0.3
1502861195.7,286046996.9,P,0.8
1502861215.5,286046999.2,N,0.8
1502861235.4,286046999.5,N,0.9
1502861255.2,286046997.1,Y,0.0
1502861275.1,286047001.1,P,1.2
1502861276.0,286047001.1,N,1.2
1502861295.8,286046998.2,N,1.4
1502861315.6,286046998.5,N,1.3
1502861335.5,286046998.4,N,1.3
1502861355.3,286046998.6,N,1.2
1502861375.1,286046999.4,N,1.1
1502861395.9,286046998.7,N,1.1
1502861415.7,286046999.3,N,1.0
1502861435.6,286046998.4,N,1.0
1502861455.4,286046998.5,N,1.0
1502861475.2,286046998.3,N,1.0
1502861495.1,286046998.1,N,0.9
1502861496.0,286046998.1,N,0.9
1502861515.8,286047001.1,N,1.1
1502861535.7,286047000.7,N,1.1
1502861555.5,286046998.6,N,1.1
1502861575.3,286047000.7,N,1.1
1502861595.2,286046998.1,N,1.1
1502861615.0,286047000.8,N,1.1
1502861615.9,286047000.8,N,1.2
1502861635.7,286046998.2,N,1.2
1502861655.6,286046998.5,N,1.1
1502861675.4,286046998.1,N,1.1
1502861695.3,286046998.7,N,1.1
1502861715.1,286046998.7,N,1.1
1502861716.0,286046998.7,N,1.1
1502861735.8,286047000.7,N,1.1
1502861755.7,286047000.8,N,1.1
1502861775.5,286047000.4,N,1.1
1502861795.4,286047000.5,N,1.1
1502861815.2,286046999.8,N,1.1
1502861835.0,286047002.8,N,1.2
1502861835.9,286047002.8,N,1.4
1502861855.8,286046999.8,N,1.3
1502861875.6,286046999.7,N,1.3
1502861895.4,286047000.0,N,1.3
1502861915.3,286046999.9,N,1.3
1502861935.1,286047000.2,N,1.3
1502861955.9,286047002.2,N,1.4
1502861975.7,286047002.4,N,1.4
1502861995.5,286047001.7,N,1.4
1502862015.4,286047001.3,N,1.4
1502862035.2,286047004.2,N,1.5
1502862055.1,286047003.9,N,1.6
1502862056.0,286047003.9,N,1.8
1502862075.8,286047004.4,N,1.8
1502862095.6,286047001.4,N,1.9
1502862115.5,286047003.5,N,1.8
1502862135.3,286047003.8,N,1.9
1502862155.1,286047002.9,N,1.9
1502862175.9,286047004.3,N,1.9
1502862195.7,286047003.8,N,1.9
1502862215.6,286047003.8,N,1.9
1502862235.4,286047004.0,N,1.8
1502862255.2,286047004.3,N,1.8
1502862275.1,286047003.7,N,1.7
1502862276.0,286047003.7,N,1.7
1502862295.8,286047003.4,N,1.6
1502862315.7,286047005.8,Y,0.0
1502862335.5,286047002.6,P,0.1
1502862355.3,286047001.7,P,0.4
1502862375.2,286047002.1,P,0.3
1502862395.0,286047002.1,Y,0.0
1502862395.9,286047002.1,P,0.1
1502862415.8,286047000.5,P,0.8
1502862435.6,286047000.0,N,1.0
1502862455.4,286047000.2,N,1.0
1502862475.3,286047000.2,N,0.9
1502862495.1,286046999.7,N,0.9
1502862515.9,286047001.5,N,0.9
1502862535.7,286047002.1,N,1.0
1502862555.5,286047000.2,N,0.9
1502862575.4,286047000.1,N,0.9
1502862595.2,286047002.2,N,1.0
1502862615.0,286047001.5,N,0.9
1502862616.0,286047001.5,N,0.9
1502862635.8,286047001.3,N,0.9
1502862655.6,286047001.3,N,0.9
1502862675.5,286047001.3,N,0.8
1502862695.3,286047001.7,N,0.8
1502862715.1,286047003.9,Y,0.0
1502862735.9,286047002.0,P,0.5
1502862755.7,286047001.6,P,0.4
1502862775.6,286047002.0,P,0.4
1502862795.4,286047001.5,Y,0.0
1502862815.2,286046999.7,P,1.0
1502862835.1,286046999.9,N,0.9
1502862836.0,286046999.9,N,0.8
1502862855.8,286047000.1,N,0.7
1502862875.7,286046999.8,N,0.7
1502862895.5,286047000.2,N,0.6
1502862915.3,286046999.8,N,0.6
1502862935.2,286046999.8,N,0.6
1502862955.0,286047000.8,N,0.6
1502862955.9,286047000.8,N,0.6
1502862975.7,286047000.9,N,0.6
1502862995.6,286047000.6,N,0.6
1502863015.4,286047000.1,N,0.6
1502863035.3,286047002.8,Y,0.0
1502863055.1,286047000.3,P,0.0
1502863075.8,286047011.9,P,5.5
1502863095.7,286047000.6,N,5.0
1502863115.5,286047000.6,N,4.6
1502863135.4,286047002.7,N,4.2
1502863155.2,286047002.3,N,3.9
1502863175.0,286047000.0,N,3.7
1502863175.9,286047000.0,N,3.6
1502863195.8,286047002.7,N,3.4
